Regional Weather Roundup
Issued by NWS

Home | Current Version | Previous Version | Text Only | Print | Product List | Glossary On
Versions: 1 2 3 4 5 6 7 8 9 10 11 12 13 14 15 16 17 18 19 20 21 22 23 24 25 26 27 28 29 30 31 32 33 34 35 36 37 38 39 40 41 42 43 44 45 46 47 48 49 50
000
ASUS43 KMKX 282111
RWRWI

WISCONSIN REGIONAL WEATHER ROUNDUP
NATIONAL WEATHER SERVICE MILWAUKEE/SULLIVAN WI
400 PM CDT FRI AUG 28 2015

NOTE: "FAIR" INDICATES FEW OR NO CLOUDS BELOW 12,000 FEET WITH NO
SIGNIFICANT WEATHER AND/OR OBSTRUCTIONS TO VISIBILITY.

WIZ001-002-006>008-014>016-023>028-282200-
NORTHWEST WISCONSIN

CITY           SKY/WX    TMP DP  RH WIND       PRES   REMARKS
SUPERIOR ARPT  MOSUNNY   80  65  61 SW15      29.93F HX  82
ASHLAND        MOSUNNY   80  65  59 SW12G22   29.95F HX  82
HAYWARD        MOSUNNY   77  62  59 S15       30.00F
SIREN          SUNNY     79  58  49 SW10      30.00S HX  80
CUMBERLAND     MOSUNNY   73  59  60 S9        30.02S
RICE LAKE      MOSUNNY   74  62  66 S9        30.04S
CHETEK         PTSUNNY  N/A N/A N/A S3        30.03R
LADYSMITH      CLOUDY    70  62  75 CALM      30.06R
EAU CLAIRE     CLOUDY    69  65  86 S13       30.01S
MENOMONIE      PTSUNNY   70  65  84 SE10      30.03R
NEW RICHMOND   PTSUNNY   75  60  59 S12       30.02S
OSCEOLA        MOSUNNY   78  61  57 S12G17    30.03S
$$

WIZ003>005-009-010-017-018-282200-
NORTH CENTRAL WISCONSIN

CITY           SKY/WX    TMP DP  RH WIND       PRES   REMARKS
MANITOWISH WTR CLOUDY    71  63  75 SW8       30.02F
ARBOR VITAE    CLOUDY    72  64  75 SW7       30.04F
WOODRUFF       CLOUDY    72  64  75 SW7       30.04F
RHINELANDER    CLOUDY    70  61  73 SW8       30.06F
EAGLE RIVER    CLOUDY    72  60  65 W9        30.03F
LAND O LAKES   CLOUDY    73  62  66 W6        30.03F
PHILLIPS       PTSUNNY   69  62  78 W5        30.04S
TOMAHAWK       CLOUDY    67  60  79 CALM      30.05F
MEDFORD        RAIN      63  63  98 S3        30.05S
MERRILL        CLOUDY    66  63  88 S6        30.06F
$$

WIZ029-030-035-036-043>047-282200-
CENTRAL WISCONSIN

CITY           SKY/WX    TMP DP  RH WIND       PRES   REMARKS
WAUSAU         LGT RAIN  65  62  90 S10       30.05F
MOSINEE        LGT RAIN  63  63 100 S8        30.10S
MARSHFIELD     RAIN      64  60  87 S6        30.06F FOG
STEVENS POINT  LGT RAIN  63  61  96 CALM      30.09F
WAUPACA        DRIZZLE   67  65  93 S6        30.09F
WAUTOMA        LGT RAIN  65  65 100 CALM      30.09F FOG
WISC RAPIDS    LGT RAIN  64  60  87 SE5       30.08F
CAMP DOUGLAS   LGT RAIN  64  64 100 E10       30.03F FOG
$$

WIZ011>013-019>022-031-037>040-048>050-282200-
NORTHEAST WISCONSIN

CITY           SKY/WX    TMP DP  RH WIND       PRES   REMARKS
ANTIGO         CLOUDY    66  61  85 SW8       30.07F
SHAWANO        DRIZZLE   68  63  83 S5        30.07F
OCONTO         CLOUDY    69  62  79 SW8       30.06S
STURGEON BAY   CLOUDY    70  61  73 SW8       30.09S
GREEN BAY      CLOUDY    69  62  78 SW5       30.08F
MANITOWOC      LGT RAIN  65  60  84 MISG      30.09F
APPLETON       CLOUDY    66  57  72 SW9       30.09
CLINTONVILLE   DRIZZLE   64  61  88 SW3       30.08F
OSHKOSH        LGT RAIN  67  62  84 SW3       30.09F
$$

WIZ032>034-041-042-053>061-282200-
SOUTHWEST WISCONSIN

CITY           SKY/WX    TMP DP  RH WIND       PRES   REMARKS
LA CROSSE      HVY RAIN  60  58  92 CALM      30.05F FOG
SPARTA         RAIN      61  59  93 CALM      30.08R
VIROQUA        CLOUDY    61  61 100 S7        30.09R
BOSCOBEL       RAIN      64  61  90 CALM      30.05S FOG
PRAIRIE DU CHI RAIN      63  60  90 E8        30.01S
PLATTEVILLE    CLOUDY    64  63  97 E7        30.05F
$$

WIZ056-057-062-063-064-067-068-282200-
SOUTH CENTRAL WISCONSIN

CITY           SKY/WX    TMP DP  RH WIND       PRES   REMARKS
REEDSBURG      RAIN      62  62  98 E6        30.05F
BARABOO/DELLS  LGT RAIN  63  61  92 E10       30.06F
LONE ROCK      RAIN      64  62  93 E13       30.04F FOG
MINERAL POINT  RAIN      63  63 100 SE7       30.08S
MADISON        LGT RAIN  66  63  90 N3        30.08F
MIDDLETON      CLOUDY    66  64  91 CALM      30.09F
WATERTOWN      CLOUDY    68  66  93 CALM      30.09F
MONROE         CLOUDY    64  61  88 E3        30.09R
JANESVILLE     CLOUDY    70  61  73 E6        30.08F
$$

WIZ051-052-058>065-066-070>072-282200-
SOUTHEAST WISCONSIN

CITY           SKY/WX    TMP DP  RH WIND       PRES   REMARKS
MILWAUKEE      CLOUDY    71  61  70 SE6       30.09F
WAUKESHA       SUNNY     68  61  77 CALM      30.11F
MILWAUKEE/TIMM SUNNY     72  57  60 CALM      30.10F
RACINE         CLOUDY    69  59  70 S5        30.11F
BURLINGTON     CLOUDY    68  60  76 CALM      30.10S
KENOSHA        CLOUDY    71  61  70 S5        30.10F
FOND DU LAC    CLOUDY    68  62  81 SW3       30.10F
SHEBOYGAN      LGT RAIN  69  62  78 SW6       30.10F
WEST BEND      CLOUDY    68  59  73 CALM      30.10F
JUNEAU         CLOUDY    67  61  81 CALM      30.11F
$$

LSZ147-162-282200-
LAKE SUPERIOR

STATION/POSITION TIME  TEMP    WIND        PRES    WAVE
                       AIR SEA DIR/SP/G            HT/PER
                 (UTC) (F)     (DEG/KT/KT) (MB)    (FT/S)
W MID LAKE BUOY  2050   58 56  270/  4/  6 1014.1F   0
DEVILS ISLAND    2100   67     230/  9/ 11 1013.5F
PORT WING        2040   77     240/  8/ 10 1013.5F
SAXON HARBOR     2000   78     210/  6/ 11 1014.6R
$$

LMZ867-665-643>646-282200-
LAKE MICHIGAN

STATION/POSITION TIME  TEMP    WIND        PRES    WAVE
                       AIR SEA DIR/SP/G            HT/PER
                 (UTC) (F)     (DEG/KT/KT) (MB)    (FT/S)
CHAMBERS ISLAND  2000   70     180/  6/ 16 1017.6F
S GREEN BAY BUOY 2100   66 62  220/ 12/ 14 1019.3
N MID LAKE BUOY  2050   64 64  200/ 17/ 21 1017.4F   3/ 5
NORTHPORT PIER   2000   67     170/  5/ 11 1017.9F
SISTER BAY       2004   71     180/ 11/ 13   N/A
ALGOMA LAKESHORE 2014          210/ 12/ 14   N/A
SHEBOYGAN LAKESH 2100   64     190/  8/  8 1019.3F
PORT WASHINGTON  2000   62      CALM  /  2 1020.3S
ATWATER BUOY     2100   57 49  150/  6/  8 1020.2F
MILWAUKEE LAKESH 2000   58     240/  2/  3   N/A
S MID LAKE BUOY  2050   68 69  170/  6/  8 1019.4F
KENOSHA   LAKESH 2100   63     170/  9/  9 1018.6F
$$

TC  - TEMPERATURE IN CELSIUS
VSB - VISIBILITY IN STATUTE MILES
WCI - WIND CHILL INDEX
HX  - HEAT INDEX




USA.gov is the U.S. government's official web portal to all federal, state and local government web resources and services.